User: anonymous   Login
Location: Drayton Valley
(53.2170°N, 114.9830°W)
Time: 06:53:30
(UTC-06:00)
Language:

MOZ.5/SAFIR/RUBIN 5/SL-8 - Orbit

View from above orbital plane
View from above orbital plane
View from above satellite
View from above satellite

Ground track
Ground track

The orbit data is extracted from the following two-line orbital elements,

1 28898U 05043G   17145.57453290 +.00000080 +00000-0 +25848-4 0  9999
2 28898 097.9233 296.3064 0018443 258.1314 101.7819 14.60178867239902
Epoch (UTC): 25 May 2017 13:47:19
Eccentricity: 0.0018443
inclination: 97.9233°
perigee height: 679 km
apogee height: 705 km
right ascension of ascending node: 296.3064°
argument of perigee: 258.1314°
revolutions per day: 14.60178867
mean anomaly at epoch: 101.7819°
orbit number at epoch: 23990

The dashed part of the orbit path shows where the satellite is in the earth's shadow,  

DLR